| time (UTC) | temp F | wind direction | speed MPH | gust MPH | rain 1hr in | rain 24hr in | rain mn in | humidity % | barometer mb |
| 20260507182100 | 87 | 242 | 6.0 | 13.0 | 0.00 | 0.00 | 0.00 | 71 | 997.1 |
| 20260507181600 | 87 | 269 | 8.0 | 13.0 | 0.00 | 0.00 | 0.00 | 70 | 997.1 |
| 20260507181100 | 88 | 297 | 5.0 | 12.0 | 0.00 | 0.00 | 0.00 | 70 | 997.1 |
| 20260507180600 | 88 | 254 | 5.0 | 13.0 | 0.00 | 0.00 | 0.00 | 71 | 997.0 |
| 20260507175600 | 87 | 238 | 6.0 | 13.0 | 0.00 | 0.00 | 0.00 | 71 | 997.2 |
| 20260507175100 | 87 | 225 | 6.0 | 13.0 | 0.00 | 0.00 | 0.00 | 72 | 997.3 |
| 20260507174600 | 87 | 279 | 6.0 | 12.0 | 0.00 | 0.00 | 0.00 | 71 | 997.4 |
| 20260507174103 | 88 | 213 | 5.0 | 12.0 | 0.00 | 0.00 | 0.00 | 70 | 997.4 |
| 20260507173600 | 88 | 273 | 3.0 | 10.0 | 0.00 | 0.00 | 0.00 | 72 | 997.4 |
| 20260507173100 | 87 | 271 | 5.0 | 10.0 | 0.00 | 0.00 | 0.00 | 71 | 997.6 |
| 20260507172600 | 87 | 242 | 4.0 | 10.0 | 0.00 | 0.00 | 0.00 | 71 | 997.6 |
| 20260507172101 | 87 | 219 | 5.0 | 9.0 | 0.00 | 0.00 | 0.00 | 70 | 997.5 |
| 20260507171604 | 88 | 280 | 5.0 | 12.0 | 0.00 | 0.00 | 0.00 | 70 | 997.5 |
| 20260507171100 | 87 | 322 | 3.0 | 12.0 | 0.00 | 0.00 | 0.00 | 70 | 997.7 |
| 20260507170600 | 87 | 273 | 3.0 | 10.0 | 0.00 | 0.00 | 0.00 | 71 | 997.8 |
| 20260507165559 | 88 | 259 | 5.0 | 10.0 | 0.00 | 0.00 | 0.00 | 67 | 997.8 |
| 20260507165059 | 90 | 247 | 4.0 | 7.0 | 0.00 | 0.00 | 0.00 | 64 | 997.9 |
| 20260507164633 | 90 | 171 | 0.0 | 2.0 | 0.00 | 0.00 | 0.00 | 58 | 998.0 |
| 20260507164059 | 89 | 306 | 0.0 | 2.0 | 0.00 | 0.00 | 0.00 | 58 | 997.9 |
| 20260507163600 | 89 | 355 | 0.0 | 2.0 | 0.00 | 0.00 | 0.00 | 59 | 998.1 |
| 20260507163101 | 89 | 63 | 0.0 | 2.0 | 0.00 | 0.00 | 0.00 | 60 | 998.3 |
| 20260507162559 | 88 | 61 | 0.0 | 2.0 | 0.00 | 0.00 | 0.00 | 62 | 998.3 |
| 20260507162100 | 88 | 287 | 0.0 | 2.0 | 0.00 | 0.00 | 0.00 | 61 | 998.3 |
| 20260507161607 | 88 | 22 | 0.0 | 2.0 | 0.00 | 0.00 | 0.00 | 62 | 998.2 |
| 20260507161059 | 88 | 89 | 0.0 | 3.0 | 0.00 | 0.00 | 0.00 | 63 | 998.3 |
| 20260507160559 | 88 | 80 | 0.0 | 3.0 | 0.00 | 0.00 | 0.00 | 65 | 998.3 |
| 20260507160100 | 87 | 118 | 1.0 | 7.0 | 0.00 | 0.00 | 0.00 | 64 | 998.6 |
| 20260507155559 | 87 | 121 | 0.0 | 7.0 | 0.00 | 0.00 | 0.00 | 64 | 998.5 |
| 20260507155100 | 87 | 99 | 0.0 | 2.0 | 0.00 | 0.00 | 0.00 | 65 | 998.6 |
| 20260507154600 | 87 | 120 | 0.0 | 2.0 | 0.00 | 0.00 | 0.00 | 65 | 998.5 |
| 20260507154059 | 86 | 164 | 0.0 | 4.0 | 0.00 | 0.00 | 0.00 | 65 | 998.4 |
| 20260507153559 | 86 | 108 | 0.0 | 4.0 | 0.00 | 0.00 | 0.00 | 65 | 998.6 |
| 20260507153059 | 86 | 90 | 0.0 | 3.0 | 0.00 | 0.00 | 0.00 | 65 | 998.7 |
| 20260507152600 | 86 | 89 | 0.0 | 3.0 | 0.00 | 0.00 | 0.00 | 67 | 998.6 |
| 20260507152103 | 86 | 136 | 1.0 | 3.0 | 0.00 | 0.00 | 0.00 | 68 | 998.7 |
| 20260507151604 | 86 | 64 | 0.0 | 2.0 | 0.00 | 0.00 | 0.00 | 68 | 998.7 |
| 20260507151059 | 85 | 53 | 0.0 | 5.0 | 0.00 | 0.00 | 0.00 | 69 | 998.8 |
| 20260507150559 | 85 | 57 | 0.0 | 5.0 | 0.00 | 0.00 | 0.00 | 69 | 999.0 |
| 20260507150100 | 85 | 78 | 0.0 | 2.0 | 0.00 | 0.00 | 0.00 | 70 | 998.8 |
| 20260507150001 | 85 | 51 | 0.0 | 2.0 | 0.00 | 0.00 | 0.00 | 70 | 998.9 |
| 20260507145602 | 84 | 49 | 0.0 | 2.0 | 0.00 | 0.00 | 0.00 | 70 | 998.9 |
| 20260507145059 | 84 | 65 | 1.0 | 3.0 | 0.00 | 0.00 | 0.00 | 71 | 999.2 |
| 20260507144604 | 84 | 55 | 1.0 | 4.0 | 0.00 | 0.00 | 0.00 | 71 | 999.2 |
| 20260507144101 | 84 | 57 | 1.0 | 4.0 | 0.00 | 0.00 | 0.00 | 71 | 999.3 |
| 20260507143559 | 84 | 78 | 1.0 | 4.0 | 0.00 | 0.00 | 0.00 | 72 | 999.1 |
| 20260507143111 | 84 | 57 | 1.0 | 4.0 | 0.00 | 0.00 | 0.00 | 72 | 999.0 |
| 20260507142600 | 83 | 71 | 0.0 | 2.0 | 0.00 | 0.00 | 0.00 | 73 | 999.0 |
| 20260507142059 | 83 | 56 | 0.0 | 3.0 | 0.00 | 0.00 | 0.00 | 75 | 998.8 |
| 20260507141623 | 82 | 74 | 1.0 | 3.0 | 0.00 | 0.00 | 0.00 | 75 | 998.9 |
| 20260507141100 | 82 | 63 | 0.0 | 3.0 | 0.00 | 0.00 | 0.00 | 77 | 998.9 |
| 20260507140602 | 82 | 58 | 0.0 | 3.0 | 0.00 | 0.00 | 0.00 | 77 | 998.9 |
| 20260507140059 | 81 | 73 | 0.0 | 2.0 | 0.00 | 0.00 | 0.00 | 78 | 998.8 |
| 20260507140000 | 81 | 74 | 0.0 | 2.0 | 0.00 | 0.00 | 0.00 | 78 | 998.7 |
| 20260507135559 | 81 | 40 | 0.0 | 3.0 | 0.00 | 0.00 | 0.00 | 78 | 998.7 |
| 20260507135059 | 81 | 44 | 1.0 | 3.0 | 0.00 | 0.00 | 0.00 | 77 | 998.6 |
| 20260507134612 | 81 | 49 | 0.0 | 2.0 | 0.00 | 0.00 | 0.00 | 78 | 998.5 |
| 20260507134100 | 81 | 53 | 0.0 | 2.0 | 0.00 | 0.00 | 0.00 | 79 | 998.3 |
| 20260507133559 | 81 | 65 | 0.0 | 2.0 | 0.00 | 0.00 | 0.00 | 79 | 998.3 |
| 20260507133110 | 81 | 56 | 0.0 | 2.0 | 0.00 | 0.00 | 0.00 | 80 | 998.3 |
| 20260507132601 | 81 | 86 | 0.0 | 0.0 | 0.00 | 0.00 | 0.00 | 80 | 998.2 |
| 20260507132100 | 80 | 105 | 0.0 | 0.0 | 0.00 | 0.00 | 0.00 | 82 | 998.0 |
| 20260507131614 | 79 | 287 | 0.0 | 0.0 | 0.00 | 0.00 | 0.00 | 82 | 997.9 |
| 20260507131100 | 79 | 287 | 0.0 | 0.0 | 0.00 | 0.00 | 0.00 | 83 | 997.9 |
| 20260507130600 | 79 | 287 | 0.0 | 0.0 | 0.00 | 0.00 | 0.00 | 83 | 998.0 |
| 20260507130100 | 79 | 287 | 0.0 | 0.0 | 0.00 | 0.00 | 0.00 | 83 | 998.0 |
| 20260507130001 | 79 | 287 | 0.0 | 0.0 | 0.00 | 0.00 | 0.00 | 83 | 997.9 |
| 20260507125559 | 78 | 287 | 0.0 | 0.0 | 0.00 | 0.00 | 0.00 | 83 | 997.8 |
| 20260507125100 | 78 | 287 | 0.0 | 0.0 | 0.00 | 0.00 | 0.00 | 83 | 997.7 |
| 20260507124600 | 78 | 287 | 0.0 | 0.0 | 0.00 | 0.00 | 0.00 | 83 | 997.7 |
| 20260507124059 | 78 | 313 | 0.0 | 2.0 | 0.00 | 0.00 | 0.00 | 83 | 997.6 |
| 20260507123600 | 78 | 313 | 0.0 | 2.0 | 0.00 | 0.00 | 0.00 | 83 | 997.5 |
| 20260507123124 | 78 | 296 | 1.0 | 2.0 | 0.00 | 0.00 | 0.00 | 83 | 997.6 |
| 20260507122601 | 78 | 295 | 1.0 | 2.0 | 0.00 | 0.00 | 0.00 | 83 | 997.5 |
| 20260507122059 | 78 | 295 | 1.0 | 3.0 | 0.00 | 0.00 | 0.00 | 83 | 997.4 |
| 20260507121601 | 78 | 286 | 2.0 | 3.0 | 0.00 | 0.00 | 0.00 | 83 | 997.2 |
| 20260507121100 | 78 | 294 | 2.0 | 3.0 | 0.00 | 0.00 | 0.00 | 83 | 997.3 |
| 20260507120559 | 77 | 281 | 1.0 | 3.0 | 0.00 | 0.00 | 0.00 | 83 | 997.2 |
| 20260507120059 | 77 | 281 | 1.0 | 3.0 | 0.00 | 0.00 | 0.00 | 83 | 997.1 |
| 20260507120001 | 77 | 307 | 1.0 | 3.0 | 0.00 | 0.00 | 0.00 | 83 | 997.1 |
| 20260507115600 | 77 | 298 | 1.0 | 3.0 | 0.00 | 0.00 | 0.00 | 83 | 997.0 |
| 20260507115059 | 77 | 294 | 1.0 | 3.0 | 0.00 | 0.00 | 0.00 | 83 | 996.9 |
| 20260507114601 | 77 | 282 | 2.0 | 4.0 | 0.00 | 0.00 | 0.00 | 83 | 997.0 |
| 20260507114100 | 77 | 288 | 2.0 | 4.0 | 0.00 | 0.00 | 0.00 | 83 | 997.0 |
| 20260507113600 | 77 | 283 | 1.0 | 2.0 | 0.00 | 0.00 | 0.00 | 83 | 996.9 |
| 20260507113059 | 78 | 284 | 0.0 | 2.0 | 0.00 | 0.00 | 0.00 | 83 | 996.9 |
| 20260507112559 | 78 | 289 | 0.0 | 0.0 | 0.00 | 0.00 | 0.00 | 83 | 996.8 |
| 20260507112100 | 78 | 294 | 0.0 | 0.0 | 0.00 | 0.00 | 0.00 | 83 | 996.8 |
| 20260507111600 | 78 | 290 | 0.0 | 0.0 | 0.00 | 0.00 | 0.00 | 82 | 996.8 |
| 20260507111100 | 78 | 279 | 0.0 | 0.0 | 0.00 | 0.00 | 0.00 | 82 | 996.7 |
| 20260507110600 | 78 | 294 | 0.0 | 0.0 | 0.00 | 0.00 | 0.00 | 81 | 996.6 |
| 20260507110100 | 78 | 301 | 0.0 | 0.0 | 0.00 | 0.00 | 0.00 | 81 | 996.7 |
| 20260507105601 | 78 | 301 | 0.0 | 0.0 | 0.00 | 0.00 | 0.00 | 80 | 996.5 |
| 20260507105059 | 78 | 296 | 0.0 | 0.0 | 0.00 | 0.00 | 0.00 | 80 | 996.4 |
| 20260507104605 | 78 | 292 | 0.0 | 0.0 | 0.00 | 0.00 | 0.00 | 80 | 996.5 |
| 20260507104105 | 78 | 269 | 0.0 | 0.0 | 0.00 | 0.00 | 0.00 | 79 | 996.4 |
| 20260507103602 | 79 | 294 | 0.0 | 0.0 | 0.00 | 0.00 | 0.00 | 79 | 996.3 |
| 20260507103059 | 79 | 300 | 0.0 | 0.0 | 0.00 | 0.00 | 0.00 | 79 | 996.3 |
| 20260507102600 | 79 | 305 | 0.0 | 0.0 | 0.00 | 0.00 | 0.00 | 80 | 996.3 |
| 20260507102105 | 79 | 302 | 0.0 | 0.0 | 0.00 | 0.00 | 0.00 | 80 | 996.2 |
| 20260507101602 | 79 | 281 | 0.0 | 2.0 | 0.00 | 0.00 | 0.00 | 80 | 996.1 |
| 20260507101103 | 79 | 299 | 0.0 | 3.0 | 0.00 | 0.00 | 0.00 | 80 | 996.1 |
| 20260507100559 | 79 | 279 | 1.0 | 3.0 | 0.00 | 0.00 | 0.00 | 80 | 996.2 |
| 20260507100001 | 79 | 277 | 0.0 | 0.0 | 0.00 | 0.00 | 0.00 | 81 | 996.3 |
| 20260507095559 | 79 | 275 | 0.0 | 0.0 | 0.00 | 0.00 | 0.00 | 81 | 996.3 |
| 20260507095059 | 79 | 256 | 0.0 | 1.0 | 0.00 | 0.00 | 0.00 | 81 | 996.3 |
| 20260507094600 | 79 | 293 | 0.0 | 3.0 | 0.00 | 0.00 | 0.00 | 81 | 996.3 |
| 20260507094103 | 79 | 282 | 0.0 | 3.0 | 0.00 | 0.00 | 0.00 | 80 | 996.4 |
| 20260507093559 | 79 | 292 | 0.0 | 0.0 | 0.00 | 0.00 | 0.00 | 80 | 996.4 |
| 20260507093100 | 80 | 316 | 0.0 | 2.0 | 0.00 | 0.00 | 0.00 | 80 | 996.4 |
| 20260507092559 | 80 | 297 | 0.0 | 2.0 | 0.00 | 0.00 | 0.00 | 80 | 996.5 |
| 20260507092101 | 80 | 284 | 0.0 | 0.0 | 0.00 | 0.00 | 0.00 | 79 | 996.4 |
| 20260507091559 | 80 | 285 | 0.0 | 0.0 | 0.00 | 0.00 | 0.00 | 80 | 996.4 |
| 20260507091102 | 80 | 281 | 0.0 | 0.0 | 0.00 | 0.00 | 0.00 | 80 | 996.5 |
| 20260507090600 | 80 | 286 | 0.0 | 0.0 | 0.00 | 0.00 | 0.00 | 80 | 996.5 |
| 20260507090104 | 79 | 284 | 0.0 | 0.0 | 0.00 | 0.00 | 0.00 | 80 | 996.5 |
| 20260507085559 | 79 | 298 | 0.0 | 0.0 | 0.00 | 0.00 | 0.00 | 81 | 996.5 |
| 20260507085059 | 79 | 285 | 0.0 | 0.0 | 0.00 | 0.00 | 0.00 | 81 | 996.6 |
| 20260507084600 | 79 | 301 | 0.0 | 0.0 | 0.00 | 0.00 | 0.00 | 82 | 996.8 |
| 20260507084059 | 79 | 278 | 0.0 | 1.0 | 0.00 | 0.00 | 0.00 | 82 | 996.7 |
| 20260507083603 | 79 | 267 | 0.0 | 1.0 | 0.00 | 0.00 | 0.00 | 82 | 996.8 |
| 20260507083100 | 79 | 284 | 0.0 | 1.0 | 0.00 | 0.00 | 0.00 | 81 | 997.0 |
| 20260507082559 | 79 | 285 | 0.0 | 2.0 | 0.00 | 0.00 | 0.00 | 81 | 996.9 |
| 20260507082100 | 79 | 278 | 1.0 | 2.0 | 0.00 | 0.00 | 0.00 | 81 | 997.0 |
| 20260507081602 | 79 | 306 | 1.0 | 2.0 | 0.00 | 0.00 | 0.00 | 82 | 996.9 |
| 20260507081104 | 79 | 306 | 0.0 | 2.0 | 0.00 | 0.00 | 0.00 | 82 | 997.1 |
| 20260507080601 | 79 | 289 | 0.0 | 2.0 | 0.00 | 0.00 | 0.00 | 83 | 997.2 |
| 20260507080120 | 79 | 291 | 1.0 | 2.0 | 0.00 | 0.00 | 0.00 | 84 | 997.3 |
| 20260507075602 | 79 | 284 | 0.0 | 2.0 | 0.00 | 0.00 | 0.00 | 84 | 997.5 |
| 20260507075101 | 79 | 321 | 0.0 | 2.0 | 0.00 | 0.00 | 0.00 | 85 | 997.5 |
| 20260507074600 | 79 | 275 | 0.0 | 2.0 | 0.00 | 0.00 | 0.00 | 84 | 997.6 |
| 20260507074501 | 79 | 287 | 0.0 | 2.0 | 0.00 | 0.00 | 0.00 | 84 | 997.5 |
| 20260507074100 | 79 | 273 | 0.0 | 2.0 | 0.00 | 0.00 | 0.00 | 85 | 997.6 |
| 20260507073603 | 79 | 277 | 0.0 | 2.0 | 0.00 | 0.00 | 0.00 | 84 | 997.7 |
| 20260507073059 | 79 | 265 | 0.0 | 2.0 | 0.00 | 0.00 | 0.00 | 85 | 997.8 |
| 20260507072602 | 79 | 288 | 0.0 | 2.0 | 0.00 | 0.00 | 0.00 | 85 | 997.8 |
| 20260507072059 | 79 | 284 | 1.0 | 2.0 | 0.00 | 0.00 | 0.00 | 85 | 997.9 |
| 20260507071605 | 79 | 257 | 0.0 | 2.0 | 0.00 | 0.00 | 0.00 | 85 | 998.0 |
| 20260507071059 | 79 | 257 | 0.0 | 2.0 | 0.00 | 0.00 | 0.00 | 85 | 998.0 |
| 20260507070559 | 79 | 281 | 0.0 | 2.0 | 0.00 | 0.00 | 0.00 | 85 | 998.1 |
| 20260507070106 | 79 | 289 | 1.0 | 3.0 | 0.00 | 0.00 | 0.00 | 85 | 998.2 |
| 20260507070002 | 79 | 306 | 1.0 | 3.0 | 0.00 | 0.00 | 0.00 | 85 | 998.2 |
| 20260507065501 | 80 | 275 | 1.0 | 3.0 | 0.00 | 0.00 | 0.00 | 85 | 998.4 |
| 20260507065001 | 80 | 270 | 0.0 | 2.0 | 0.00 | 0.00 | 0.00 | 85 | 998.5 |
| 20260507064503 | 80 | 275 | 0.0 | 0.0 | 0.00 | 0.00 | 0.00 | 84 | 998.7 |
| 20260507064001 | 81 | 278 | 0.0 | 0.0 | 0.00 | 0.00 | 0.00 | 84 | 998.8 |
| 20260507063502 | 81 | 278 | 0.0 | 0.0 | 0.00 | 0.00 | 0.00 | 83 | 998.8 |
| 20260507063001 | 81 | 278 | 0.0 | 0.0 | 0.00 | 0.00 | 0.00 | 83 | 998.9 |
| 20260507062502 | 81 | 316 | 0.0 | 0.0 | 0.00 | 0.00 | 0.00 | 83 | 999.0 |
| 20260507062001 | 81 | 58 | 0.0 | 0.0 | 0.00 | 0.00 | 0.00 | 83 | 999.0 |
| 20260507061502 | 81 | 42 | 0.0 | 0.0 | 0.00 | 0.00 | 0.00 | 82 | 999.1 |
| 20260507061004 | 82 | 59 | 0.0 | 0.0 | 0.00 | 0.00 | 0.00 | 82 | 999.1 |
| 20260507060502 | 82 | 59 | 0.0 | 0.0 | 0.00 | 0.00 | 0.00 | 82 | 999.3 |
| 20260507060005 | 82 | 59 | 0.0 | 0.0 | 0.00 | 0.00 | 0.00 | 82 | 999.3 |
| 20260507055503 | 82 | 59 | 0.0 | 0.0 | 0.00 | 0.00 | 0.00 | 82 | 999.3 |
| 20260507055002 | 82 | 59 | 0.0 | 0.0 | 0.00 | 0.00 | 0.00 | 82 | 999.2 |
| 20260507054504 | 82 | 79 | 0.0 | 0.0 | 0.00 | 0.00 | 0.00 | 81 | 999.3 |
| 20260507054002 | 82 | 87 | 0.0 | 0.0 | 0.00 | 0.00 | 0.00 | 82 | 999.2 |
| 20260507053501 | 82 | 83 | 0.0 | 0.0 | 0.00 | 0.00 | 0.00 | 82 | 999.3 |
| 20260507053006 | 82 | 39 | 0.0 | 0.0 | 0.00 | 0.00 | 0.00 | 82 | 999.3 |
| 20260507052501 | 82 | 63 | 0.0 | 0.0 | 0.00 | 0.00 | 0.00 | 81 | 999.3 |
| 20260507052002 | 82 | 63 | 0.0 | 0.0 | 0.00 | 0.00 | 0.00 | 82 | 999.3 |
| 20260507051500 | 82 | 63 | 0.0 | 0.0 | 0.00 | 0.00 | 0.00 | 82 | 999.4 |
| 20260507051002 | 82 | 63 | 0.0 | 0.0 | 0.00 | 0.00 | 0.00 | 82 | 999.4 |
| 20260507050501 | 82 | 63 | 0.0 | 0.0 | 0.00 | 0.00 | 0.00 | 82 | 999.4 |
| 20260507045601 | 81 | 337 | 0.0 | 0.0 | 0.00 | 0.00 | 0.00 | 84 | 999.4 |
| 20260507045001 | 81 | 290 | 0.0 | 1.0 | 0.00 | 0.00 | 0.00 | 85 | 999.3 |
| 20260507044601 | 81 | 192 | 0.0 | 2.0 | 0.00 | 0.00 | 0.00 | 85 | 999.3 |
| 20260507044103 | 81 | 267 | 0.0 | 4.0 | 0.00 | 0.00 | 0.00 | 85 | 999.2 |
| 20260507043600 | 81 | 225 | 1.0 | 4.0 | 0.00 | 0.00 | 0.00 | 84 | 999.1 |
| 20260507043002 | 81 | 242 | 2.0 | 4.0 | 0.00 | 0.00 | 0.00 | 84 | 999.1 |
| 20260507042602 | 82 | 259 | 1.0 | 3.0 | 0.00 | 0.00 | 0.00 | 84 | 999.0 |
| 20260507042100 | 82 | 269 | 1.0 | 3.0 | 0.00 | 0.00 | 0.00 | 84 | 999.0 |
| 20260507042001 | 82 | 269 | 0.0 | 3.0 | 0.00 | 0.00 | 0.00 | 83 | 999.0 |
| 20260507041600 | 82 | 198 | 1.0 | 2.0 | 0.00 | 0.00 | 0.00 | 83 | 998.8 |
| 20260507041001 | 82 | 243 | 1.0 | 4.0 | 0.00 | 0.00 | 0.00 | 83 | 998.8 |
| 20260507040601 | 82 | 245 | 2.0 | 4.0 | 0.00 | 0.00 | 0.00 | 83 | 998.7 |
| 20260507040002 | 82 | 231 | 0.0 | 8.0 | 0.00 | 0.00 | 0.00 | 82 | 998.7 |
| 20260507035504 | 82 | 250 | 1.0 | 8.0 | 0.00 | 0.00 | 0.00 | 82 | 998.6 |
| 20260507035002 | 82 | 186 | 1.0 | 6.0 | 0.00 | 0.00 | 0.00 | 82 | 998.5 |
| 20260507034501 | 82 | 202 | 1.0 | 8.0 | 0.00 | 0.00 | 0.00 | 83 | 998.5 |
| 20260507034001 | 82 | 311 | 1.0 | 8.0 | 0.00 | 0.00 | 0.00 | 83 | 998.4 |
| 20260507033503 | 82 | 265 | 4.0 | 8.0 | 0.00 | 0.00 | 0.00 | 83 | 998.3 |
| 20260507033002 | 82 | 229 | 1.0 | 11.0 | 0.00 | 0.00 | 0.00 | 83 | 998.3 |
| 20260507032501 | 82 | 188 | 2.0 | 11.0 | 0.00 | 0.00 | 0.00 | 82 | 998.1 |
| 20260507032001 | 82 | 270 | 3.0 | 12.0 | 0.00 | 0.00 | 0.00 | 82 | 998.0 |
| 20260507031506 | 82 | 271 | 4.0 | 12.0 | 0.00 | 0.00 | 0.00 | 81 | 997.9 |
| 20260507031002 | 82 | 263 | 6.0 | 14.0 | 0.00 | 0.00 | 0.00 | 82 | 997.9 |
| 20260507030502 | 82 | 288 | 3.0 | 11.0 | 0.00 | 0.00 | 0.00 | 82 | 998.0 |
| 20260507030003 | 82 | 291 | 6.0 | 11.0 | 0.00 | 0.00 | 0.00 | 82 | 998.0 |
| 20260507025600 | 82 | 281 | 4.0 | 10.0 | 0.00 | 0.00 | 0.00 | 82 | 998.1 |
| 20260507025100 | 82 | 210 | 3.0 | 9.0 | 0.00 | 0.00 | 0.00 | 82 | 998.0 |
| 20260507024600 | 82 | 273 | 4.0 | 10.0 | 0.00 | 0.00 | 0.00 | 82 | 998.1 |
| 20260507024100 | 82 | 261 | 3.0 | 13.0 | 0.00 | 0.00 | 0.00 | 82 | 998.1 |
| 20260507023600 | 82 | 267 | 7.0 | 13.0 | 0.00 | 0.00 | 0.00 | 81 | 998.1 |
| 20260507023100 | 82 | 251 | 5.0 | 14.0 | 0.00 | 0.00 | 0.00 | 82 | 998.1 |
| 20260507022600 | 82 | 302 | 7.0 | 14.0 | 0.00 | 0.00 | 0.00 | 81 | 998.1 |
| 20260507022100 | 82 | 255 | 6.0 | 13.0 | 0.00 | 0.00 | 0.00 | 81 | 998.1 |
| 20260507022001 | 82 | 279 | 7.0 | 13.0 | 0.00 | 0.00 | 0.00 | 81 | 998.2 |
| 20260507021600 | 82 | 285 | 8.0 | 13.0 | 0.00 | 0.00 | 0.00 | 81 | 998.2 |
| 20260507021100 | 82 | 283 | 6.0 | 13.0 | 0.00 | 0.00 | 0.00 | 81 | 998.1 |
| 20260507020603 | 82 | 274 | 6.0 | 12.0 | 0.00 | 0.00 | 0.00 | 81 | 998.0 |
| 20260507020001 | 82 | 201 | 6.0 | 11.0 | 0.00 | 0.00 | 0.00 | 81 | 998.0 |
| 20260507015503 | 82 | 298 | 7.0 | 11.0 | 0.00 | 0.00 | 0.00 | 81 | 998.0 |
| 20260507015100 | 83 | 279 | 6.0 | 13.0 | 0.00 | 0.00 | 0.00 | 81 | 997.9 |
| 20260507015002 | 83 | 263 | 6.0 | 13.0 | 0.00 | 0.00 | 0.00 | 81 | 997.9 |
| 20260507014602 | 83 | 281 | 6.0 | 13.0 | 0.00 | 0.00 | 0.00 | 81 | 998.0 |
| 20260507014100 | 83 | 277 | 4.0 | 10.0 | 0.00 | 0.00 | 0.00 | 81 | 997.9 |
| 20260507013600 | 83 | 290 | 5.0 | 12.0 | 0.00 | 0.00 | 0.00 | 81 | 998.0 |
| 20260507013102 | 83 | 248 | 6.0 | 12.0 | 0.00 | 0.00 | 0.00 | 81 | 998.0 |
| 20260507012501 | 83 | 238 | 4.0 | 11.0 | 0.00 | 0.00 | 0.00 | 81 | 997.9 |
| 20260507012101 | 83 | 267 | 5.0 | 11.0 | 0.00 | 0.00 | 0.00 | 81 | 998.0 |
| 20260507011601 | 83 | 248 | 2.0 | 11.0 | 0.00 | 0.00 | 0.00 | 81 | 998.0 |
| 20260507011501 | 83 | 245 | 4.0 | 11.0 | 0.00 | 0.00 | 0.00 | 81 | 998.0 |
| 20260507011102 | 83 | 248 | 5.0 | 11.0 | 0.00 | 0.00 | 0.00 | 81 | 998.0 |
| 20260507010600 | 83 | 269 | 6.0 | 13.0 | 0.00 | 0.00 | 0.00 | 81 | 997.9 |
| 20260507010116 | 83 | 333 | 5.0 | 13.0 | 0.00 | 0.00 | 0.00 | 81 | 997.6 |
| 20260507010004 | 83 | 267 | 4.0 | 13.0 | 0.00 | 0.00 | 0.00 | 81 | 997.6 |
| 20260507005501 | 83 | 296 | 6.0 | 13.0 | 0.00 | 0.00 | 0.00 | 81 | 997.6 |
| 20260507005004 | 83 | 265 | 5.0 | 11.0 | 0.00 | 0.00 | 0.00 | 80 | 997.5 |
| 20260507004501 | 83 | 298 | 4.0 | 11.0 | 0.00 | 0.00 | 0.00 | 81 | 997.3 |
| 20260507004001 | 83 | 271 | 2.0 | 11.0 | 0.00 | 0.00 | 0.00 | 81 | 997.2 |
| 20260507003501 | 83 | 208 | 3.0 | 11.0 | 0.00 | 0.00 | 0.00 | 81 | 997.2 |
| 20260507003000 | 83 | 261 | 5.0 | 12.0 | 0.00 | 0.00 | 0.00 | 80 | 997.2 |
| 20260507002502 | 83 | 234 | 4.0 | 17.0 | 0.00 | 0.00 | 0.00 | 80 | 997.1 |
| 20260507002002 | 83 | 263 | 5.0 | 17.0 | 0.00 | 0.00 | 0.00 | 80 | 997.1 |
| 20260507001501 | 83 | 261 | 4.0 | 13.0 | 0.00 | 0.00 | 0.00 | 80 | 997.1 |
| 20260507001001 | 84 | 192 | 6.0 | 13.0 | 0.00 | 0.00 | 0.00 | 80 | 997.0 |
| 20260507000502 | 83 | 228 | 3.0 | 13.0 | 0.00 | 0.00 | 0.00 | 80 | 996.8 |
| 20260507000002 | 83 | 178 | 4.0 | 18.0 | 0.00 | 0.00 | 0.00 | 80 | 996.9 |
| 20260506235601 | 84 | 222 | 5.0 | 18.0 | 0.00 | 0.00 | 0.00 | 80 | 996.8 |
| 20260506235103 | 84 | 216 | 5.0 | 16.0 | 0.00 | 0.00 | 0.00 | 80 | 996.6 |
| 20260506234601 | 84 | 225 | 7.0 | 16.0 | 0.00 | 0.00 | 0.00 | 80 | 996.4 |
| 20260506234100 | 84 | 199 | 6.0 | 13.0 | 0.00 | 0.00 | 0.00 | 80 | 996.3 |
| 20260506233601 | 84 | 306 | 6.0 | 16.0 | 0.00 | 0.00 | 0.00 | 80 | 996.4 |
| 20260506233503 | 84 | 291 | 8.0 | 16.0 | 0.00 | 0.00 | 0.00 | 80 | 996.5 |
| 20260506233100 | 84 | 203 | 7.0 | 16.0 | 0.00 | 0.00 | 0.00 | 79 | 996.5 |
| 20260506232603 | 84 | 265 | 8.0 | 16.0 | 0.00 | 0.00 | 0.00 | 79 | 996.5 |
| 20260506232100 | 84 | 284 | 8.0 | 16.0 | 0.00 | 0.00 | 0.00 | 78 | 996.5 |
| 20260506232000 | 85 | 238 | 9.0 | 16.0 | 0.00 | 0.00 | 0.00 | 78 | 996.5 |
| 20260506231612 | 85 | 233 | 4.0 | 16.0 | 0.00 | 0.00 | 0.00 | 77 | 996.4 |
| 20260506231501 | 85 | 248 | 3.0 | 16.0 | 0.00 | 0.00 | 0.00 | 77 | 996.5 |
| 20260506231059 | 85 | 227 | 5.0 | 13.0 | 0.00 | 0.00 | 0.00 | 77 | 996.4 |
| 20260506230600 | 85 | 289 | 7.0 | 15.0 | 0.00 | 0.00 | 0.00 | 76 | 996.3 |
| 20260506230124 | 85 | 263 | 4.0 | 13.0 | 0.00 | 0.00 | 0.00 | 76 | 996.3 |
| 20260506225600 | 85 | 263 | 6.0 | 14.0 | 0.00 | 0.00 | 0.00 | 76 | 996.4 |
| 20260506225001 | 85 | 229 | 4.0 | 15.0 | 0.00 | 0.00 | 0.00 | 76 | 996.4 |
| 20260506224603 | 85 | 231 | 6.0 | 23.0 | 0.00 | 0.00 | 0.00 | 77 | 996.4 |
| 20260506224101 | 85 | 250 | 9.0 | 23.0 | 0.00 | 0.00 | 0.00 | 77 | 996.3 |
| 20260506223600 | 85 | 286 | 7.0 | 15.0 | 0.00 | 0.00 | 0.00 | 77 | 996.3 |
| 20260506223101 | 86 | 292 | 7.0 | 14.0 | 0.00 | 0.00 | 0.00 | 76 | 996.3 |
| 20260506222600 | 86 | 298 | 7.0 | 15.0 | 0.00 | 0.00 | 0.00 | 76 | 996.4 |
| 20260506222100 | 86 | 264 | 9.0 | 18.0 | 0.00 | 0.00 | 0.00 | 76 | 996.3 |
| 20260506221631 | 87 | 215 | 7.0 | 18.0 | 0.00 | 0.00 | 0.00 | 75 | 996.3 |
| 20260506221000 | 87 | 254 | 5.0 | 15.0 | 0.00 | 0.00 | 0.00 | 75 | 996.3 |
| 20260506220600 | 87 | 275 | 8.0 | 15.0 | 0.00 | 0.00 | 0.00 | 74 | 996.2 |
| 20260506220132 | 87 | 285 | 7.0 | 20.0 | 0.00 | 0.00 | 0.00 | 74 | 996.2 |
| 20260506220004 | 87 | 307 | 6.0 | 20.0 | 0.00 | 0.00 | 0.00 | 75 | 996.2 |
| 20260506215600 | 86 | 269 | 10.0 | 20.0 | 0.00 | 0.00 | 0.00 | 75 | 996.2 |
| 20260506215100 | 86 | 232 | 10.0 | 21.0 | 0.00 | 0.00 | 0.00 | 75 | 996.3 |
| 20260506214601 | 87 | 235 | 8.0 | 21.0 | 0.00 | 0.00 | 0.00 | 74 | 996.3 |
| 20260506214501 | 87 | 295 | 8.0 | 21.0 | 0.00 | 0.00 | 0.00 | 74 | 996.2 |
| 20260506214101 | 87 | 257 | 8.0 | 17.0 | 0.00 | 0.00 | 0.00 | 72 | 996.3 |
| 20260506213600 | 87 | 251 | 8.0 | 16.0 | 0.00 | 0.00 | 0.00 | 72 | 996.3 |
| 20260506213001 | 87 | 212 | 8.0 | 19.0 | 0.00 | 0.00 | 0.00 | 72 | 996.2 |
| 20260506212601 | 87 | 221 | 9.0 | 18.0 | 0.00 | 0.00 | 0.00 | 72 | 996.2 |
| 20260506212502 | 87 | 270 | 9.0 | 18.0 | 0.00 | 0.00 | 0.00 | 72 | 996.2 |
| 20260506212001 | 87 | 217 | 9.0 | 18.0 | 0.00 | 0.00 | 0.00 | 71 | 996.2 |
| 20260506211601 | 87 | 209 | 10.0 | 18.0 | 0.00 | 0.00 | 0.00 | 74 | 996.3 |
| 20260506211100 | 87 | 252 | 11.0 | 16.0 | 0.00 | 0.00 | 0.00 | 74 | 996.2 |
| 20260506211001 | 87 | 208 | 10.0 | 17.0 | 0.00 | 0.00 | 0.00 | 74 | 996.4 |
| 20260506210601 | 86 | 279 | 10.0 | 25.0 | 0.00 | 0.00 | 0.00 | 75 | 996.5 |
| 20260506210106 | 86 | 205 | 12.0 | 25.0 | 0.00 | 0.00 | 0.00 | 76 | 996.3 |
| 20260506210002 | 86 | 209 | 14.0 | 25.0 | 0.00 | 0.00 | 0.00 | 76 | 996.5 |
| 20260506205600 | 86 | 252 | 10.0 | 22.0 | 0.00 | 0.00 | 0.00 | 76 | 996.5 |
| 20260506205102 | 86 | 246 | 13.0 | 22.0 | 0.00 | 0.00 | 0.00 | 76 | 996.4 |
| 20260506204608 | 86 | 270 | 9.0 | 22.0 | 0.00 | 0.00 | 0.00 | 76 | 996.5 |
| 20260506204100 | 86 | 267 | 11.0 | 23.0 | 0.00 | 0.00 | 0.00 | 76 | 996.3 |
| 20260506203501 | 86 | 292 | 12.0 | 21.0 | 0.00 | 0.00 | 0.00 | 76 | 996.6 |
| 20260506203100 | 86 | 228 | 9.0 | 21.0 | 0.00 | 0.00 | 0.00 | 76 | 996.5 |
| 20260506202600 | 86 | 229 | 12.0 | 21.0 | 0.00 | 0.00 | 0.00 | 76 | 996.6 |
| 20260506202001 | 86 | 267 | 11.0 | 19.0 | 0.00 | 0.00 | 0.00 | 74 | 996.9 |
| 20260506201600 | 86 | 240 | 12.0 | 19.0 | 0.00 | 0.00 | 0.00 | 73 | 996.8 |
| 20260506201059 | 86 | 235 | 12.0 | 19.0 | 0.00 | 0.00 | 0.00 | 73 | 996.8 |
| 20260506200603 | 87 | 294 | 11.0 | 18.0 | 0.00 | 0.00 | 0.00 | 71 | 996.9 |
| 20260506200100 | 87 | 234 | 8.0 | 19.0 | 0.00 | 0.00 | 0.00 | 72 | 996.9 |
| 20260506200003 | 87 | 217 | 10.0 | 19.0 | 0.00 | 0.00 | 0.00 | 73 | 996.9 |
| 20260506195600 | 87 | 218 | 10.0 | 19.0 | 0.00 | 0.00 | 0.00 | 72 | 997.1 |
| 20260506195101 | 87 | 262 | 10.0 | 20.0 | 0.00 | 0.00 | 0.00 | 73 | 997.2 |
| 20260506194501 | 87 | 241 | 11.0 | 19.0 | 0.00 | 0.00 | 0.00 | 71 | 997.1 |
| 20260506194100 | 88 | 248 | 8.0 | 18.0 | 0.00 | 0.00 | 0.00 | 70 | 997.2 |
| 20260506194000 | 88 | 206 | 8.0 | 18.0 | 0.00 | 0.00 | 0.00 | 70 | 997.2 |
| 20260506193501 | 88 | 272 | 8.0 | 16.0 | 0.00 | 0.00 | 0.00 | 69 | 997.3 |
| 20260506193116 | 88 | 246 | 7.0 | 15.0 | 0.00 | 0.00 | 0.00 | 69 | 997.4 |
| 20260506192601 | 88 | 300 | 8.0 | 17.0 | 0.00 | 0.00 | 0.00 | 68 | 997.4 |
| 20260506192100 | 88 | 238 | 10.0 | 19.0 | 0.00 | 0.00 | 0.00 | 68 | 997.4 |
| 20260506192002 | 88 | 245 | 10.0 | 19.0 | 0.00 | 0.00 | 0.00 | 68 | 997.3 |
| 20260506191628 | 88 | 289 | 10.0 | 17.0 | 0.00 | 0.00 | 0.00 | 68 | 997.6 |
| 20260506191100 | 88 | 250 | 8.0 | 21.0 | 0.00 | 0.00 | 0.00 | 69 | 997.4 |
| 20260506190600 | 89 | 267 | 8.0 | 21.0 | 0.00 | 0.00 | 0.00 | 67 | 997.5 |
| 20260506190002 | 89 | 327 | 6.0 | 14.0 | 0.00 | 0.00 | 0.00 | 68 | 997.7 |
| 20260506185501 | 89 | 291 | 6.0 | 14.0 | 0.00 | 0.00 | 0.00 | 69 | 997.8 |
| 20260506185100 | 89 | 298 | 7.0 | 13.0 | 0.00 | 0.00 | 0.00 | 67 | 997.9 |
| 20260506184634 | 89 | 230 | 7.0 | 15.0 | 0.00 | 0.00 | 0.00 | 68 | 997.8 |
| 20260506184102 | 88 | 240 | 6.0 | 15.0 | 0.00 | 0.00 | 0.00 | 70 | 998.0 |
| 20260506183604 | 88 | 283 | 7.0 | 15.0 | 0.00 | 0.00 | 0.00 | 70 | 998.1 |
| 20260506183114 | 88 | 297 | 8.0 | 16.0 | 0.00 | 0.00 | 0.00 | 70 | 998.2 |
| 20260506182501 | 89 | 237 | 7.0 | 16.0 | 0.00 | 0.00 | 0.00 | 70 | 998.3 |